Tracking 19484 objects as of 19-Jan-2019
HD Live streaming from Space Station
objects crossing your sky now

NOAA 6

Track NOAA 6 now!
10-day predictions
NOAA 6 is classified as:


NORAD ID: 11416
Int'l Code: 1979-057A
Perigee: 780.0 km
Apogee: 794.3 km
Inclination: 98.6 °
Period: 100.5 minutes
Semi major axis: 7158 km
RCS: 3.9008 m2 (large)
Launch date: June 27, 1979
Source: United States (US)
Launch site: AIR FORCE WESTERN TEST RANGE (AFWTR)
aabbcc
Your satellite tracking list
Your tracking list is empty




NASA's NSSDC Master Catalog

Two Line Element Set (TLE):
1 11416U 79057A   19018.57803883  .00000032  00000-0  27649-4 0  9999
2 11416  98.6278  13.0561 0009972 340.1381  19.9414 14.33513819 63227
Source of the keplerian elements: AFSPC